Weather History for EGMC - April, 2013

Change the Weather History Date:

Tuesday, April 23, 2013

  Actual Average Record
Temperature  
Mean Temperature 59 °F -  
Max Temperature 68 °F 59 °F 77 °F (2011)
Min Temperature 50 °F 45 °F 37 °F (2008)
Degree Days  
Heating Degree Days 6    
Growing Degree Days 9 (Base 50)    
Moisture  
Dew Point 46 °F    
Average Humidity 65    
Maximum Humidity 87    
Minimum Humidity 43    
Precipitation  
Precipitation 0.00 in - - ()
Sea Level Pressure  
Sea Level Pressure 30.09 in    
Wind  
Wind Speed 9 mph ()    
Max Wind Speed 16 mph    
Max Gust Speed -    
Visibility 6.2 miles    
Events      
Averages and records for this station are not official NWS values.
T = Trace of Precipitation, MM = Missing Value Source: Averaged Metar Reports

Daily Weather History Graph

Daily Weather History Graph

Search for Another Location

Airport or City:

Trip Planner

Search our weather history database for the weather conditions in past years. The results will help you decide how hot, cold, wet, or windy it might be!

Date:

Astronomy

Apr. 23, 2013 Rise Set
Actual Time 5:44 AM BST 8:07 PM BST
Civil Twilight 5:07 AM BST 8:44 PM BST
Nautical Twilight 4:21 AM BST 9:31 PM BST
Astronomical Twilight 3:26 AM BST 10:26 PM BST
Moon 5:31 PM BST (4/23) 4:22 AM BST (4/23)
Length of Visible Light 15h 36m
Length of Day
14h 23m
Waxing Gibbous, 93% of the Moon is Illuminated
Apr 23
Waxing Gibbous
Apr 25
Full
May 2
Last Quarter
May 10
New
May 18
First Quarter

Hourly Weather History & Observations

Time (BST) Temp. Dew Point Humidity Pressure Visibility Wind Dir Wind Speed Gust Speed Precip Events Conditions
12:50 AM 50.0 °F 44.6 °F 82% 29.98 in 6.2 mi SSW 11.5 mph - N/A   Mostly Cloudy
1:50 AM 50.0 °F 46.4 °F 87% 29.98 in 6.2 mi SW 16.1 mph - N/A   Mostly Cloudy
2:50 AM 50.0 °F 46.4 °F 87% 29.98 in 6.2 mi WSW 13.8 mph - N/A   Mostly Cloudy
3:50 AM 50.0 °F 46.4 °F 87% 29.98 in 6.2 mi WSW 12.7 mph - N/A   Mostly Cloudy
4:50 AM 50.0 °F 46.4 °F 87% 30.01 in 6.2 mi WSW 9.2 mph - N/A   Mostly Cloudy
5:20 AM 50.0 °F 46.4 °F 87% 30.01 in 6.2 mi WSW 11.5 mph - N/A   Scattered Clouds
5:50 AM 50.0 °F 46.4 °F 87% 30.01 in 6.2 mi WSW 9.2 mph - N/A   Mostly Cloudy
6:20 AM 50.0 °F 46.4 °F 87% 30.04 in 6.2 mi SW 8.1 mph - N/A   Scattered Clouds
6:50 AM 51.8 °F 46.4 °F 82% 30.04 in 6.2 mi WSW 6.9 mph - N/A   Scattered Clouds
7:20 AM 51.8 °F 46.4 °F 82% 30.04 in 6.2 mi WSW 8.1 mph - N/A   Partly Cloudy
7:50 AM 53.6 °F 48.2 °F 82% 30.06 in 6.2 mi West 8.1 mph - N/A   Partly Cloudy
8:20 AM 55.4 °F 48.2 °F 77% 30.06 in 6.2 mi West 8.1 mph - N/A   Scattered Clouds
8:50 AM 55.4 °F 46.4 °F 72% 30.06 in 6.2 mi WNW 10.4 mph - N/A   Partly Cloudy
9:20 AM 57.2 °F 46.4 °F 67% 30.09 in 6.2 mi WNW 9.2 mph - N/A   Partly Cloudy
9:50 AM 57.2 °F 46.4 °F 67% 30.09 in 6.2 mi WNW 9.2 mph - N/A   Partly Cloudy
10:20 AM 59.0 °F 46.4 °F 63% 30.09 in 6.2 mi West 6.9 mph - N/A   Partly Cloudy
10:50 AM 60.8 °F 46.4 °F 59% 30.09 in 6.2 mi WNW 10.4 mph - N/A   Partly Cloudy
11:20 AM 60.8 °F 44.6 °F 55% 30.09 in 6.2 mi West 11.5 mph - N/A   Partly Cloudy
11:50 AM 62.6 °F 44.6 °F 52% 30.09 in 6.2 mi West 10.4 mph - N/A   Partly Cloudy
12:20 PM 62.6 °F 44.6 °F 52% 30.12 in 6.2 mi West 10.4 mph - N/A   Partly Cloudy
12:50 PM 62.6 °F 44.6 °F 52% 30.12 in 6.2 mi WSW 10.4 mph - N/A   Partly Cloudy
1:20 PM 64.4 °F 42.8 °F 45% 30.12 in 6.2 mi WNW 12.7 mph - N/A   Partly Cloudy
2:20 PM 66.2 °F 44.6 °F 46% 30.12 in - West 10.4 mph - N/A   Clear
2:50 PM 66.2 °F 44.6 °F 46% 30.12 in - WSW 11.5 mph - N/A   Clear
3:20 PM 66.2 °F 44.6 °F 46% 30.12 in - WSW 9.2 mph - N/A   Clear
3:50 PM 66.2 °F 44.6 °F 46% 30.12 in - West 10.4 mph - N/A   Clear
4:20 PM 66.2 °F 46.4 °F 49% 30.12 in - West 10.4 mph - N/A   Clear
4:50 PM 68.0 °F 44.6 °F 43% 30.12 in - WSW 10.4 mph - N/A   Clear
5:20 PM 68.0 °F 46.4 °F 46% 30.12 in - West 8.1 mph - N/A   Clear
5:50 PM 68.0 °F 46.4 °F 46% 30.12 in - WSW 8.1 mph - N/A   Clear
6:20 PM 68.0 °F 46.4 °F 46% 30.12 in - West 8.1 mph - N/A   Clear
6:50 PM 66.2 °F 44.6 °F 46% 30.12 in - West 8.1 mph - N/A   Clear
7:50 PM 62.6 °F 46.4 °F 55% 30.15 in - NW 5.8 mph - N/A   Clear
8:20 PM 62.6 °F 46.4 °F 55% 30.15 in - NW 5.8 mph - N/A   Clear
8:50 PM 59.0 °F 46.4 °F 63% 30.15 in - Calm Calm - N/A   Clear
9:20 PM 57.2 °F 48.2 °F 72% 30.18 in - SSE 5.8 mph - N/A   Clear
9:50 PM 59.0 °F 50.0 °F 72% 30.18 in - SSE 5.8 mph - N/A   Clear
10:20 PM 57.2 °F 48.2 °F 72% 30.18 in - WSW 6.9 mph - N/A   Clear
10:50 PM 55.4 °F 48.2 °F 77% 30.18 in - WSW 6.9 mph - N/A   Clear
11:20 PM 53.6 °F 46.4 °F 77% 30.18 in - SSW 6.9 mph - N/A   Clear
11:50 PM 53.6 °F 46.4 °F 77% 30.18 in - SW 5.8 mph - N/A   Clear